When you browse on this site, cookies collect data to enhance your experience and personalize the content and advertising you see.
Visit our Privacy Policy to learn more. By continuing to use the site, you agree to this use of cookies and data.
  • Em Portugal
  • Lista de países
  • Para 7 dias
  • Temperatura da água
  • Mapas de satélite
  • Mapa do tempo
  • Widgets de tempo
  • user-avatar
    Iniciar Sessão

    Previsão horária em Tebriz

    Hoje, 24 Maio, Sexta-feira

    Tempo Temperatura Precipitação Vento Pressão Humidade
    00:00 +19°C° 0 mm 3 m/s 646 mmHg 49%
    01:00 +19°C° 0 mm 2 m/s 646 mmHg 51%
    02:00 +18°C° 0 mm 2 m/s 645 mmHg 53%
    03:00 +19°C° 0 mm 1 m/s 645 mmHg 55%
    04:00 +19°C° 0 mm 1 m/s 645 mmHg 53%
    05:00 +20°C° 0 mm 1 m/s 646 mmHg 52%
    06:00 +21°C° 0 mm 1 m/s 646 mmHg 50%
    07:00 +21°C° 0 mm 2 m/s 646 mmHg 44%
    08:00 +23°C° 0 mm 4 m/s 646 mmHg 38%
    09:00 +25°C° 0 mm 5 m/s 647 mmHg 32%
    10:00 +26°C° 0 mm 6 m/s 647 mmHg 30%
    11:00 +27°C° 0 mm 7 m/s 647 mmHg 27%
    12:00 +28°C° 0 mm 7 m/s 647 mmHg 25%
    13:00 +29°C° 0 mm 7 m/s 647 mmHg 24%
    14:00 +29°C° 0 mm 7 m/s 647 mmHg 23%
    15:00 +29°C° 0 mm 7 m/s 647 mmHg 22%
    16:00 +29°C° 0 mm 6 m/s 646 mmHg 23%
    17:00 +28°C° 0 mm 5 m/s 646 mmHg 24%
    18:00 +28°C° 0 mm 4 m/s 646 mmHg 26%
    19:00 +26°C° 0.1 mm 3 m/s 646 mmHg 29%
    20:00 +25°C° 0.1 mm 3 m/s 647 mmHg 31%
    21:00 +24°C° 0.1 mm 2 m/s 647 mmHg 34%
    22:00 +23°C° 0 mm 2 m/s 647 mmHg 37%
    23:00 +21°C° 0 mm 2 m/s 646 mmHg 39%

    Amanhã, 25 Maio, Sábado

    Tempo Temperatura Precipitação Vento Pressão Humidade
    00:00 +22°C° 0 mm 1 m/s 646 mmHg 41%
    01:00 +21°C° 0 mm 1 m/s 646 mmHg 42%
    02:00 +21°C° 0 mm 1 m/s 646 mmHg 42%
    03:00 +18°C° 0 mm 0 m/s 646 mmHg 43%
    04:00 +21°C° 0 mm 1 m/s 646 mmHg 42%
    05:00 +22°C° 0 mm 1 m/s 647 mmHg 40%
    06:00 +22°C° 0 mm 1 m/s 647 mmHg 39%
    07:00 +24°C° 0 mm 2 m/s 648 mmHg 32%
    08:00 +26°C° 0 mm 2 m/s 648 mmHg 26%
    09:00 +28°C° 0 mm 3 m/s 648 mmHg 20%
    10:00 +29°C° 0 mm 5 m/s 649 mmHg 18%
    11:00 +32°C° 0 mm 6 m/s 649 mmHg 17%
    12:00 +33°C° 0 mm 8 m/s 649 mmHg 15%
    13:00 +33°C° 0 mm 8 m/s 648 mmHg 15%
    14:00 +33°C° 0 mm 8 m/s 648 mmHg 15%
    15:00 +33°C° 0 mm 9 m/s 648 mmHg 15%
    16:00 +32°C° 0 mm 8 m/s 648 mmHg 17%
    17:00 +30°C° 0 mm 7 m/s 648 mmHg 20%
    18:00 +29°C° 0 mm 6 m/s 647 mmHg 22%
    19:00 +28°C° 0.1 mm 6 m/s 647 mmHg 24%
    20:00 +27°C° 0.1 mm 5 m/s 647 mmHg 26%
    21:00 +26°C° 0.1 mm 4 m/s 647 mmHg 28%
    22:00 +25°C° 0 mm 3 m/s 647 mmHg 29%
    23:00 +24°C° 0 mm 2 m/s 646 mmHg 30%

    Depois de amanhã, 26 Maio, Domingo

    Tempo Temperatura Precipitação Vento Pressão Humidade
    00:00 +23°C° 0 mm 1 m/s 646 mmHg 30%
    01:00 +23°C° 0 mm 1 m/s 646 mmHg 31%
    02:00 +22°C° 0 mm 1 m/s 646 mmHg 32%
    03:00 +22°C° 0 mm 1 m/s 646 mmHg 33%
    04:00 +22°C° 0 mm 1 m/s 646 mmHg 33%
    05:00 +23°C° 0 mm 2 m/s 646 mmHg 34%
    06:00 +23°C° 0 mm 2 m/s 646 mmHg 34%
    07:00 +25°C° 0 mm 2 m/s 647 mmHg 30%
    08:00 +27°C° 0 mm 2 m/s 647 mmHg 25%
    09:00 +28°C° 0 mm 2 m/s 647 mmHg 21%
    10:00 +29°C° 0 mm 4 m/s 647 mmHg 19%
    11:00 +32°C° 0 mm 6 m/s 647 mmHg 17%
    12:00 +33°C° 0 mm 8 m/s 647 mmHg 15%
    13:00 +33°C° 0 mm 9 m/s 647 mmHg 15%
    14:00 +33°C° 0 mm 10 m/s 647 mmHg 14%
    15:00 +33°C° 0 mm 11 m/s 647 mmHg 14%
    16:00 +32°C° 0 mm 10 m/s 646 mmHg 15%
    17:00 +31°C° 0 mm 9 m/s 646 mmHg 17%
    18:00 +29°C° 0 mm 9 m/s 646 mmHg 18%
    19:00 +28°C° 0 mm 8 m/s 646 mmHg 19%
    20:00 +27°C° 0 mm 7 m/s 646 mmHg 20%
    21:00 +26°C° 0 mm 6 m/s 646 mmHg 21%
    22:00 +25°C° 0 mm 5 m/s 646 mmHg 23%
    23:00 +23°C° 0 mm 4 m/s 646 mmHg 25%

    27 Maio, Segunda-feira

    Tempo Temperatura Precipitação Vento Pressão Humidade
    00:00 +22°C° 0 mm 3 m/s 645 mmHg 27%
    01:00 +21°C° 0 mm 2 m/s 645 mmHg 30%
    02:00 +21°C° 0 mm 1 m/s 645 mmHg 34%
    03:00 +20°C° 0 mm 1 m/s 645 mmHg 38%
    04:00 +21°C° 0 mm 1 m/s 645 mmHg 41%
    05:00 +20°C° 0 mm 2 m/s 646 mmHg 43%
    06:00 +20°C° 0 mm 2 m/s 646 mmHg 46%
    07:00 +21°C° 0 mm 2 m/s 647 mmHg 42%
    08:00 +24°C° 0 mm 2 m/s 647 mmHg 38%
    09:00 +25°C° 0 mm 2 m/s 648 mmHg 34%
    10:00 +26°C° 0 mm 2 m/s 648 mmHg 30%
    11:00 +27°C° 0 mm 2 m/s 648 mmHg 27%
    12:00 +28°C° 0 mm 2 m/s 648 mmHg 23%
    13:00 +29°C° 0 mm 2 m/s 648 mmHg 20%
    14:00 +30°C° 0 mm 3 m/s 648 mmHg 17%
    15:00 +30°C° 0 mm 4 m/s 648 mmHg 14%
    16:00 +29°C° 0 mm 4 m/s 648 mmHg 17%
    17:00 +28°C° 0 mm 3 m/s 648 mmHg 21%
    18:00 +27°C° 0 mm 3 m/s 648 mmHg 24%
    19:00 +26°C° 0 mm 3 m/s 648 mmHg 34%
    20:00 +23°C° 0 mm 4 m/s 648 mmHg 45%
    21:00 +21°C° 0 mm 4 m/s 648 mmHg 56%
    22:00 +21°C° 0 mm 4 m/s 648 mmHg 58%
    23:00 +20°C° 0 mm 4 m/s 648 mmHg 60%

    28 Maio, Terça-feira

    Tempo Temperatura Precipitação Vento Pressão Humidade
    00:00 +19°C° 0 mm 4 m/s 648 mmHg 62%
    01:00 +19°C° 0 mm 3 m/s 648 mmHg 63%
    02:00 +18°C° 0 mm 3 m/s 648 mmHg 65%
    03:00 +18°C° 0 mm 3 m/s 648 mmHg 67%
    04:00 +18°C° 0 mm 3 m/s 648 mmHg 67%
    05:00 +18°C° 0 mm 3 m/s 648 mmHg 68%
    06:00 +18°C° 0 mm 4 m/s 649 mmHg 69%
    07:00 +19°C° 0 mm 4 m/s 649 mmHg 62%
    08:00 +20°C° 0 mm 4 m/s 649 mmHg 55%
    09:00 +22°C° 0 mm 5 m/s 650 mmHg 49%
    10:00 +22°C° 0 mm 5 m/s 650 mmHg 45%
    11:00 +23°C° 0 mm 5 m/s 650 mmHg 42%
    12:00 +25°C° 0 mm 5 m/s 650 mmHg 39%
    13:00 +26°C° 0.1 mm 5 m/s 649 mmHg 37%
    14:00 +26°C° 0.1 mm 5 m/s 649 mmHg 36%
    15:00 +26°C° 0.1 mm 5 m/s 649 mmHg 35%
    16:00 +26°C° 0.1 mm 5 m/s 649 mmHg 37%
    17:00 +25°C° 0.1 mm 5 m/s 649 mmHg 39%
    18:00 +25°C° 0.1 mm 5 m/s 649 mmHg 41%
    19:00 +22°C° 0 mm 5 m/s 649 mmHg 46%
    20:00 +21°C° 0 mm 4 m/s 649 mmHg 51%
    21:00 +20°C° 0 mm 4 m/s 649 mmHg 56%
    22:00 +19°C° 0 mm 4 m/s 649 mmHg 59%
    23:00 +18°C° 0 mm 4 m/s 649 mmHg 62%

    29 Maio, Quarta-feira

    Tempo Temperatura Precipitação Vento Pressão Humidade
    00:00 +17°C° 0 mm 3 m/s 649 mmHg 65%
    01:00 +17°C° 0 mm 3 m/s 648 mmHg 66%
    02:00 +17°C° 0 mm 3 m/s 648 mmHg 67%
    03:00 +16°C° 0 mm 3 m/s 648 mmHg 68%
    04:00 +16°C° 0 mm 3 m/s 648 mmHg 67%
    05:00 +17°C° 0 mm 3 m/s 648 mmHg 65%
    06:00 +17°C° 0 mm 3 m/s 649 mmHg 63%
    07:00 +18°C° 0 mm 3 m/s 649 mmHg 55%
    08:00 +20°C° 0 mm 3 m/s 649 mmHg 46%
    09:00 +21°C° 0 mm 3 m/s 649 mmHg 37%
    10:00 +24°C° 0 mm 3 m/s 649 mmHg 34%
    11:00 +25°C° 0 mm 3 m/s 649 mmHg 30%
    12:00 +26°C° 0 mm 3 m/s 649 mmHg 26%
    13:00 +26°C° 0 mm 4 m/s 649 mmHg 26%
    14:00 +27°C° 0 mm 4 m/s 649 mmHg 25%
    15:00 +28°C° 0 mm 4 m/s 649 mmHg 24%
    16:00 +27°C° 0 mm 5 m/s 648 mmHg 28%
    17:00 +26°C° 0 mm 5 m/s 648 mmHg 31%
    18:00 +24°C° 0 mm 6 m/s 648 mmHg 34%
    19:00 +23°C° 0 mm 5 m/s 648 mmHg 39%
    20:00 +22°C° 0 mm 4 m/s 648 mmHg 44%
    21:00 +20°C° 0 mm 4 m/s 648 mmHg 49%
    22:00 +20°C° 0 mm 4 m/s 648 mmHg 51%
    23:00 +19°C° 0 mm 3 m/s 648 mmHg 54%
    Mostrar mais